﻿測定場所 (Monitoring sites),日付 (Measurement date),時間 (Measurement time),線量率 最大値 (max) μGy/h,線量率 最小値 (min) μGy/h,線量率 平均値 (average) μGy/h,
江戸川 (Edogawa),2014-10-05,23:01～24:00,0.0724,0.0658,0.0695,
江戸川 (Edogawa),2014-10-05,22:01～23:00,0.0819,0.0645,0.0717,
江戸川 (Edogawa),2014-10-05,21:01～22:00,0.0788,0.0694,0.0730,
江戸川 (Edogawa),2014-10-05,20:01～21:00,0.0802,0.0694,0.0746,
江戸川 (Edogawa),2014-10-05,19:01～20:00,0.0845,0.0715,0.0788,
江戸川 (Edogawa),2014-10-05,18:01～19:00,0.0913,0.0792,0.0850,
江戸川 (Edogawa),2014-10-05,17:01～18:00,0.0893,0.0729,0.0818,
江戸川 (Edogawa),2014-10-05,16:01～17:00,0.0854,0.0726,0.0772,
江戸川 (Edogawa),2014-10-05,15:01～16:00,0.0852,0.0733,0.0794,
江戸川 (Edogawa),2014-10-05,14:01～15:00,0.0889,0.0737,0.0803,
江戸川 (Edogawa),2014-10-05,13:01～14:00,0.0820,0.0725,0.0769,
江戸川 (Edogawa),2014-10-05,12:01～13:00,0.0809,0.0703,0.0754,
江戸川 (Edogawa),2014-10-05,11:01～12:00,0.0828,0.0726,0.0762,
江戸川 (Edogawa),2014-10-05,10:01～11:00,0.0846,0.0715,0.0772,
江戸川 (Edogawa),2014-10-05,09:01～10:00,0.0824,0.0719,0.0758,
江戸川 (Edogawa),2014-10-05,08:01～09:00,0.0885,0.0735,0.0786,
江戸川 (Edogawa),2014-10-05,07:01～08:00,0.0841,0.0723,0.0772,
江戸川 (Edogawa),2014-10-05,06:01～07:00,0.0795,0.0717,0.0751,
江戸川 (Edogawa),2014-10-05,05:01～06:00,0.0809,0.0716,0.0759,
江戸川 (Edogawa),2014-10-05,04:01～05:00,0.0805,0.0716,0.0758,
江戸川 (Edogawa),2014-10-05,03:01～04:00,0.0810,0.0725,0.0754,
江戸川 (Edogawa),2014-10-05,02:01～03:00,0.0793,0.0694,0.0733,
江戸川 (Edogawa),2014-10-05,01:01～02:00,0.0811,0.0702,0.0733,
江戸川 (Edogawa),2014-10-05,00:01～01:00,0.0792,0.0704,0.0735,
江戸川 (Edogawa),2014-10-04,23:01～24:00,0.0785,0.0695,0.0735,
江戸川 (Edogawa),2014-10-04,22:01～23:00,0.0784,0.0704,0.0731,
江戸川 (Edogawa),2014-10-04,21:01～22:00,0.0772,0.0684,0.0727,
江戸川 (Edogawa),2014-10-04,20:01～21:00,0.0782,0.0703,0.0728,
江戸川 (Edogawa),2014-10-04,19:01～20:00,0.0763,0.0693,0.0729,
江戸川 (Edogawa),2014-10-04,18:01～19:00,0.0773,0.0707,0.0730,
江戸川 (Edogawa),2014-10-04,17:01～18:00,0.0756,0.0682,0.0724,
江戸川 (Edogawa),2014-10-04,16:01～17:00,0.0777,0.0690,0.0726,
江戸川 (Edogawa),2014-10-04,15:01～16:00,0.0777,0.0691,0.0726,
江戸川 (Edogawa),2014-10-04,14:01～15:00,0.0746,0.0691,0.0722,
江戸川 (Edogawa),2014-10-04,13:01～14:00,0.0788,0.0681,0.0720,
江戸川 (Edogawa),2014-10-04,12:01～13:00,0.0776,0.0698,0.0731,
江戸川 (Edogawa),2014-10-04,11:01～12:00,0.0776,0.0697,0.0727,
江戸川 (Edogawa),2014-10-04,10:01～11:00,0.0752,0.0691,0.0724,
江戸川 (Edogawa),2014-10-04,09:01～10:00,0.0791,0.0695,0.0726,
江戸川 (Edogawa),2014-10-04,08:01～09:00,0.0782,0.0705,0.0730,
江戸川 (Edogawa),2014-10-04,07:01～08:00,0.0765,0.0697,0.0728,
江戸川 (Edogawa),2014-10-04,06:01～07:00,0.0782,0.0691,0.0729,
江戸川 (Edogawa),2014-10-04,05:01～06:00,0.0771,0.0700,0.0730,
江戸川 (Edogawa),2014-10-04,04:01～05:00,0.0793,0.0694,0.0732,
江戸川 (Edogawa),2014-10-04,03:01～04:00,0.0788,0.0688,0.0730,
江戸川 (Edogawa),2014-10-04,02:01～03:00,0.0786,0.0701,0.0734,
江戸川 (Edogawa),2014-10-04,01:01～02:00,0.0768,0.0702,0.0728,
江戸川 (Edogawa),2014-10-04,00:01～01:00,0.0794,0.0701,0.0726,
江戸川 (Edogawa),2014-10-03,23:01～24:00,0.0760,0.0676,0.0721,
江戸川 (Edogawa),2014-10-03,22:01～23:00,0.0795,0.0693,0.0722,
江戸川 (Edogawa),2014-10-03,21:01～22:00,0.0780,0.0698,0.0723,
江戸川 (Edogawa),2014-10-03,20:01～21:00,0.0762,0.0680,0.0722,
江戸川 (Edogawa),2014-10-03,19:01～20:00,0.0751,0.0685,0.0718,
江戸川 (Edogawa),2014-10-03,18:01～19:00,0.0753,0.0683,0.0717,
江戸川 (Edogawa),2014-10-03,17:01～18:00,0.0755,0.0693,0.0722,
江戸川 (Edogawa),2014-10-03,16:01～17:00,0.0755,0.0685,0.0721,
江戸川 (Edogawa),2014-10-03,15:01～16:00,0.0767,0.0684,0.0721,
江戸川 (Edogawa),2014-10-03,14:01～15:00,0.0785,0.0676,0.0726,
江戸川 (Edogawa),2014-10-03,13:01～14:00,0.0745,0.0683,0.0721,
江戸川 (Edogawa),2014-10-03,12:01～13:00,0.0792,0.0677,0.0721,
江戸川 (Edogawa),2014-10-03,11:01～12:00,0.0753,0.0688,0.0714,
江戸川 (Edogawa),2014-10-03,10:01～11:00,0.0743,0.0669,0.0709,
江戸川 (Edogawa),2014-10-03,09:01～10:00,0.0756,0.0676,0.0716,
江戸川 (Edogawa),2014-10-03,08:01～09:00,0.0767,0.0674,0.0716,
江戸川 (Edogawa),2014-10-03,07:01～08:00,0.0763,0.0681,0.0715,
江戸川 (Edogawa),2014-10-03,06:01～07:00,0.0748,0.0674,0.0720,
江戸川 (Edogawa),2014-10-03,05:01～06:00,0.0764,0.0680,0.0717,
江戸川 (Edogawa),2014-10-03,04:01～05:00,0.0743,0.0673,0.0716,
江戸川 (Edogawa),2014-10-03,03:01～04:00,0.0748,0.0682,0.0718,
江戸川 (Edogawa),2014-10-03,02:01～03:00,0.0802,0.0684,0.0719,
江戸川 (Edogawa),2014-10-03,01:01～02:00,0.0746,0.0692,0.0720,
江戸川 (Edogawa),2014-10-03,00:01～01:00,0.0750,0.0686,0.0718,
江戸川 (Edogawa),2014-10-02,23:01～24:00,0.0780,0.0690,0.0721,
江戸川 (Edogawa),2014-10-02,22:01～23:00,0.0748,0.0696,0.0718,
江戸川 (Edogawa),2014-10-02,21:01～22:00,0.0769,0.0674,0.0724,
江戸川 (Edogawa),2014-10-02,20:01～21:00,0.0788,0.0697,0.0728,
江戸川 (Edogawa),2014-10-02,19:01～20:00,0.0784,0.0705,0.0735,
江戸川 (Edogawa),2014-10-02,18:01～19:00,0.0778,0.0694,0.0726,
江戸川 (Edogawa),2014-10-02,17:01～18:00,0.0792,0.0698,0.0727,
江戸川 (Edogawa),2014-10-02,16:01～17:00,0.0770,0.0702,0.0728,
江戸川 (Edogawa),2014-10-02,15:01～16:00,0.0785,0.0695,0.0732,
江戸川 (Edogawa),2014-10-02,14:01～15:00,0.0752,0.0653,0.0714,
江戸川 (Edogawa),2014-10-02,13:01～14:00,0.0766,0.0671,0.0711,
江戸川 (Edogawa),2014-10-02,12:01～13:00,0.0761,0.0680,0.0721,
江戸川 (Edogawa),2014-10-02,11:01～12:00,0.0755,0.0686,0.0719,
江戸川 (Edogawa),2014-10-02,10:01～11:00,0.0757,0.0688,0.0724,
江戸川 (Edogawa),2014-10-02,09:01～10:00,0.0738,0.0669,0.0717,
江戸川 (Edogawa),2014-10-02,08:01～09:00,0.0760,0.0691,0.0720,
江戸川 (Edogawa),2014-10-02,07:01～08:00,0.0744,0.0691,0.0719,
江戸川 (Edogawa),2014-10-02,06:01～07:00,0.0746,0.0668,0.0720,
江戸川 (Edogawa),2014-10-02,05:01～06:00,0.0782,0.0689,0.0723,
江戸川 (Edogawa),2014-10-02,04:01～05:00,0.0765,0.0687,0.0721,
江戸川 (Edogawa),2014-10-02,03:01～04:00,0.0770,0.0680,0.0721,
江戸川 (Edogawa),2014-10-02,02:01～03:00,0.0770,0.0688,0.0722,
江戸川 (Edogawa),2014-10-02,01:01～02:00,0.0770,0.0670,0.0721,
江戸川 (Edogawa),2014-10-02,00:01～01:00,0.0774,0.0689,0.0718,
江戸川 (Edogawa),2014-10-01,23:01～24:00,0.0770,0.0689,0.0723,
江戸川 (Edogawa),2014-10-01,22:01～23:00,0.0794,0.0690,0.0720,
江戸川 (Edogawa),2014-10-01,21:01～22:00,0.0786,0.0680,0.0721,
江戸川 (Edogawa),2014-10-01,20:01～21:00,0.0767,0.0676,0.0717,
江戸川 (Edogawa),2014-10-01,19:01～20:00,0.0769,0.0688,0.0721,
江戸川 (Edogawa),2014-10-01,18:01～19:00,0.0748,0.0677,0.0718,
江戸川 (Edogawa),2014-10-01,17:01～18:00,0.0749,0.0682,0.0717,
江戸川 (Edogawa),2014-10-01,16:01～17:00,0.0748,0.0668,0.0720,
江戸川 (Edogawa),2014-10-01,15:01～16:00,0.0770,0.0689,0.0726,
江戸川 (Edogawa),2014-10-01,14:01～15:00,0.0749,0.0702,0.0724,
江戸川 (Edogawa),2014-10-01,13:01～14:00,0.0748,0.0691,0.0721,
江戸川 (Edogawa),2014-10-01,12:01～13:00,0.0760,0.0685,0.0723,
江戸川 (Edogawa),2014-10-01,11:01～12:00,0.0772,0.0687,0.0719,
江戸川 (Edogawa),2014-10-01,10:01～11:00,0.0770,0.0688,0.0721,
江戸川 (Edogawa),2014-10-01,09:01～10:00,0.0780,0.0695,0.0727,
江戸川 (Edogawa),2014-10-01,08:01～09:00,0.0778,0.0693,0.0732,
江戸川 (Edogawa),2014-10-01,07:01～08:00,0.0786,0.0708,0.0745,
江戸川 (Edogawa),2014-10-01,06:01～07:00,0.0761,0.0682,0.0727,
江戸川 (Edogawa),2014-10-01,05:01～06:00,0.0773,0.0690,0.0729,
江戸川 (Edogawa),2014-10-01,04:01～05:00,0.0767,0.0693,0.0729,
江戸川 (Edogawa),2014-10-01,03:01～04:00,0.0776,0.0688,0.0725,
江戸川 (Edogawa),2014-10-01,02:01～03:00,0.0761,0.0690,0.0722,
江戸川 (Edogawa),2014-10-01,01:01～02:00,0.0778,0.0692,0.0728,
江戸川 (Edogawa),2014-10-01,00:01～01:00,0.0769,0.0693,0.0727,
江戸川 (Edogawa),2014-09-30,23:01～24:00,0.0768,0.0698,0.0723,
江戸川 (Edogawa),2014-09-30,22:01～23:00,0.0751,0.0683,0.0723,
江戸川 (Edogawa),2014-09-30,21:01～22:00,0.0776,0.0687,0.0727,
江戸川 (Edogawa),2014-09-30,20:01～21:00,0.0761,0.0694,0.0722,
江戸川 (Edogawa),2014-09-30,19:01～20:00,0.0776,0.0691,0.0725,
江戸川 (Edogawa),2014-09-30,18:01～19:00,0.0775,0.0694,0.0724,
江戸川 (Edogawa),2014-09-30,17:01～18:00,0.0764,0.0689,0.0725,
江戸川 (Edogawa),2014-09-30,16:01～17:00,0.0757,0.0681,0.0726,
江戸川 (Edogawa),2014-09-30,15:01～16:00,0.0766,0.0688,0.0724,
江戸川 (Edogawa),2014-09-30,14:01～15:00,0.0785,0.0691,0.0726,
江戸川 (Edogawa),2014-09-30,13:01～14:00,0.0760,0.0683,0.0724,
江戸川 (Edogawa),2014-09-30,12:01～13:00,0.0809,0.0696,0.0725,
江戸川 (Edogawa),2014-09-30,11:01～12:00,0.0795,0.0690,0.0727,
江戸川 (Edogawa),2014-09-30,10:01～11:00,0.0752,0.0697,0.0722,
江戸川 (Edogawa),2014-09-30,09:01～10:00,0.0760,0.0683,0.0721,
江戸川 (Edogawa),2014-09-30,08:01～09:00,0.0763,0.0693,0.0724,
江戸川 (Edogawa),2014-09-30,07:01～08:00,0.0760,0.0692,0.0728,
江戸川 (Edogawa),2014-09-30,06:01～07:00,0.0776,0.0689,0.0723,
江戸川 (Edogawa),2014-09-30,05:01～06:00,0.0764,0.0675,0.0720,
江戸川 (Edogawa),2014-09-30,04:01～05:00,0.0790,0.0680,0.0724,
江戸川 (Edogawa),2014-09-30,03:01～04:00,0.0779,0.0676,0.0721,
江戸川 (Edogawa),2014-09-30,02:01～03:00,0.0744,0.0684,0.0719,
江戸川 (Edogawa),2014-09-30,01:01～02:00,0.0753,0.0679,0.0721,
江戸川 (Edogawa),2014-09-30,00:01～01:00,0.0763,0.0678,0.0719,
江戸川 (Edogawa),2014-09-29,23:01～24:00,0.0774,0.0677,0.0722,
江戸川 (Edogawa),2014-09-29,22:01～23:00,0.0766,0.0685,0.0722,
江戸川 (Edogawa),2014-09-29,21:01～22:00,0.0783,0.0684,0.0724,
江戸川 (Edogawa),2014-09-29,20:01～21:00,0.0766,0.0689,0.0722,
江戸川 (Edogawa),2014-09-29,19:01～20:00,0.0753,0.0666,0.0715,
江戸川 (Edogawa),2014-09-29,18:01～19:00,0.0748,0.0690,0.0721,
江戸川 (Edogawa),2014-09-29,17:01～18:00,0.0746,0.0678,0.0714,
江戸川 (Edogawa),2014-09-29,16:01～17:00,0.0767,0.0692,0.0722,
江戸川 (Edogawa),2014-09-29,15:01～16:00,0.0780,0.0690,0.0721,
江戸川 (Edogawa),2014-09-29,14:01～15:00,0.0778,0.0692,0.0720,
江戸川 (Edogawa),2014-09-29,13:01～14:00,0.0762,0.0678,0.0722,
江戸川 (Edogawa),2014-09-29,12:01～13:00,0.0767,0.0692,0.0722,
江戸川 (Edogawa),2014-09-29,11:01～12:00,0.0771,0.0693,0.0725,
江戸川 (Edogawa),2014-09-29,10:01～11:00,0.0750,0.0686,0.0719,
江戸川 (Edogawa),2014-09-29,09:01～10:00,0.0763,0.0686,0.0722,
江戸川 (Edogawa),2014-09-29,08:01～09:00,0.0768,0.0683,0.0721,
江戸川 (Edogawa),2014-09-29,07:01～08:00,0.0769,0.0657,0.0720,
江戸川 (Edogawa),2014-09-29,06:01～07:00,0.0737,0.0678,0.0716,
江戸川 (Edogawa),2014-09-29,05:01～06:00,0.0755,0.0682,0.0719,
江戸川 (Edogawa),2014-09-29,04:01～05:00,0.0750,0.0683,0.0718,
江戸川 (Edogawa),2014-09-29,03:01～04:00,0.0764,0.0684,0.0719,
江戸川 (Edogawa),2014-09-29,02:01～03:00,0.0749,0.0672,0.0716,
江戸川 (Edogawa),2014-09-29,01:01～02:00,0.0766,0.0685,0.0721,
江戸川 (Edogawa),2014-09-29,00:01～01:00,0.0767,0.0681,0.0720,
